TimeCST,TemperatureF,Dew PointF,Humidity,Sea Level PressureIn,VisibilityMPH,Wind Direction,Wind SpeedMPH,Gust SpeedMPH,PrecipitationIn,Events,Conditions,WindDirDegrees,DateUTC
12:09 AM,21.2,19.4,93,29.95,4.0,NNW,11.5,-,N/A,,Mostly Cloudy,330,2013-02-27 06:09:00
12:29 AM,21.2,19.4,93,29.95,5.0,NNW,11.5,-,N/A,,Scattered Clouds,330,2013-02-27 06:29:00
12:56 AM,21.9,19.0,89,30.02,6.0,NNW,12.7,-,N/A,,Clear,330,2013-02-27 06:56:00
1:56 AM,21.2,17.6,86,29.96,6.0,NNW,8.1,-,N/A,,Clear,330,2013-02-27 07:56:00
2:56 AM,21.2,17.6,86,29.95,7.0,NNW,9.2,-,N/A,,Clear,330,2013-02-27 08:56:00
3:56 AM,19.4,15.8,86,29.95,8.0,North,13.8,-,N/A,,Clear,350,2013-02-27 09:56:00
4:56 AM,21.0,16.0,81,30.01,9.0,North,15.0,-,N/A,,Clear,350,2013-02-27 10:56:00
5:56 AM,21.0,15.1,78,30.02,10.0,North,12.7,-,N/A,,Clear,350,2013-02-27 11:56:00
6:56 AM,21.9,15.1,75,30.04,10.0,NNW,15.0,-,N/A,,Clear,340,2013-02-27 12:56:00
7:56 AM,24.1,16.0,71,30.06,10.0,NNW,16.1,-,N/A,,Clear,340,2013-02-27 13:56:00
8:56 AM,27.0,18.0,69,30.06,10.0,NNW,18.4,-,N/A,,Clear,340,2013-02-27 14:56:00
9:56 AM,30.0,19.9,66,30.08,10.0,North,17.3,-,N/A,,Clear,350,2013-02-27 15:56:00
10:56 AM,32.0,21.0,64,30.08,10.0,NNW,17.3,-,N/A,,Clear,340,2013-02-27 16:56:00
11:56 AM,33.1,21.9,64,30.09,10.0,NNW,18.4,25.3,N/A,,Clear,340,2013-02-27 17:56:00
12:56 PM,34.0,21.9,61,30.09,10.0,NNW,20.7,28.8,N/A,,Clear,340,2013-02-27 18:56:00
1:56 PM,35.1,21.0,57,30.09,10.0,NW,16.1,25.3,N/A,,Clear,320,2013-02-27 19:56:00
2:56 PM,33.1,23.0,66,30.09,10.0,NW,19.6,25.3,N/A,,Clear,310,2013-02-27 20:56:00
3:56 PM,30.0,21.0,69,30.10,10.0,NW,17.3,26.5,N/A,,Clear,320,2013-02-27 21:56:00
4:56 PM,28.0,21.9,78,30.10,10.0,NW,23.0,29.9,N/A,,Clear,320,2013-02-27 22:56:00
5:56 PM,25.0,19.9,81,30.12,10.0,NW,18.4,29.9,N/A,,Partly Cloudy,320,2013-02-27 23:56:00
6:56 PM,24.1,19.9,84,30.14,10.0,NW,18.4,29.9,N/A,,Mostly Cloudy,320,2013-02-28 00:56:00
7:56 PM,24.1,19.9,84,30.15,10.0,NNW,20.7,26.5,N/A,,Mostly Cloudy,330,2013-02-28 01:56:00
8:56 PM,26.1,21.9,84,30.15,10.0,NNW,21.9,28.8,N/A,,Overcast,340,2013-02-28 02:56:00
9:56 PM,26.6,21.2,80,30.09,10.0,NNW,18.4,27.6,N/A,,Overcast,340,2013-02-28 03:56:00
10:56 PM,27.0,21.9,81,30.15,10.0,North,19.6,25.3,N/A,,Overcast,350,2013-02-28 04:56:00
11:56 PM,26.6,21.2,80,30.10,10.0,NNW,13.8,-,N/A,,Overcast,340,2013-02-28 05:56:00